TimeAKDT,TemperatureF,Dew PointF,Humidity,Sea Level PressureIn,VisibilityMPH,Wind Direction,Wind SpeedMPH,Gust SpeedMPH,PrecipitationIn,Events,Conditions,WindDirDegrees,DateUTC
12:10 AM,51.8,50.0,94,29.63,7.0,East,10.4,-,N/A,,Overcast,90,2013-09-13 08:10:00
12:23 AM,51.8,51.8,100,29.64,9.0,Calm,Calm,-,N/A,,Overcast,0,2013-09-13 08:23:00
12:44 AM,51.8,50.0,94,29.64,6.0,NE,8.1,-,N/A,,Overcast,40,2013-09-13 08:44:00
12:53 AM,51.1,50.0,96,29.65,7.0,NNE,5.8,-,N/A,,Overcast,20,2013-09-13 08:53:00
1:53 AM,50.0,48.9,96,29.66,9.0,Calm,Calm,-,N/A,,Overcast,0,2013-09-13 09:53:00
2:00 AM,51.8,50.0,94,29.66,9.0,Calm,Calm,-,N/A,,Overcast,0,2013-09-13 10:00:00
2:53 AM,50.0,48.9,96,29.67,3.0,SSE,9.2,-,N/A,,Overcast,160,2013-09-13 10:53:00
3:53 AM,48.0,46.0,93,29.69,3.0,Calm,Calm,-,N/A,,Overcast,0,2013-09-13 11:53:00
4:12 AM,48.2,46.4,93,29.69,10.0,ENE,3.5,-,N/A,,Scattered Clouds,70,2013-09-13 12:12:00
4:53 AM,48.0,45.0,89,29.70,10.0,SSE,3.5,-,N/A,,Scattered Clouds,150,2013-09-13 12:53:00
5:53 AM,46.9,45.0,93,29.71,10.0,Calm,Calm,-,N/A,,Clear,0,2013-09-13 13:53:00
6:53 AM,50.0,46.9,89,29.72,10.0,East,6.9,-,N/A,,Scattered Clouds,80,2013-09-13 14:53:00
7:53 AM,51.1,48.9,92,29.73,4.0,ENE,5.8,-,0.00,Rain,Light Rain,60,2013-09-13 15:53:00
8:53 AM,51.1,48.9,92,29.74,5.0,East,9.2,-,0.04,Rain,Light Rain,80,2013-09-13 16:53:00
9:53 AM,51.1,50.0,96,29.75,7.0,East,9.2,-,0.00,,Overcast,80,2013-09-13 17:53:00
10:53 AM,53.1,51.1,93,29.77,5.0,East,10.4,-,N/A,,Mostly Cloudy,100,2013-09-13 18:53:00
11:53 AM,53.1,51.1,93,29.78,6.0,ESE,9.2,-,N/A,,Mostly Cloudy,110,2013-09-13 19:53:00
12:53 PM,53.1,51.1,93,29.79,9.0,East,8.1,-,0.00,,Mostly Cloudy,80,2013-09-13 20:53:00
1:53 PM,53.1,51.1,93,29.81,6.0,NE,8.1,-,N/A,,Mostly Cloudy,40,2013-09-13 21:53:00
2:53 PM,53.1,50.0,89,29.82,8.0,NE,8.1,-,N/A,,Overcast,40,2013-09-13 22:53:00
3:53 PM,54.0,51.1,90,29.81,9.0,NE,3.5,-,0.00,,Overcast,40,2013-09-13 23:53:00
4:53 PM,53.1,50.0,89,29.82,10.0,NE,6.9,-,N/A,,Overcast,50,2013-09-14 00:53:00
5:53 PM,53.1,50.0,89,29.83,9.0,NE,5.8,-,N/A,,Overcast,40,2013-09-14 01:53:00
6:53 PM,53.1,50.0,89,29.83,8.0,NNE,4.6,-,N/A,,Overcast,20,2013-09-14 02:53:00
7:53 PM,53.1,50.0,89,29.84,10.0,NNW,4.6,-,N/A,,Overcast,340,2013-09-14 03:53:00
8:36 PM,51.8,50.0,94,29.85,9.0,North,3.5,-,N/A,,Overcast,350,2013-09-14 04:36:00
8:53 PM,52.0,50.0,93,29.85,10.0,North,3.5,-,N/A,,Overcast,350,2013-09-14 04:53:00
9:53 PM,52.0,50.0,93,29.86,10.0,North,5.8,-,N/A,,Overcast,360,2013-09-14 05:53:00
10:43 PM,53.6,50.0,88,29.86,10.0,NNW,5.8,-,N/A,,Overcast,340,2013-09-14 06:43:00
10:53 PM,53.1,48.9,86,29.86,10.0,North,6.9,-,N/A,,Overcast,350,2013-09-14 06:53:00
11:53 PM,53.1,48.9,86,29.87,10.0,NNW,5.8,-,N/A,,Overcast,330,2013-09-14 07:53:00